,,,PA_Meas_PMT16A,,PR_Meas_QMR101_102,,RH_Meas_QMH101,,SR_Meas_QMS101,,TA_Meas_QMH101,,GenWind,,GenWind,
date,time,status,PA,status,PR,status,RH,status,SR,status,TA,status,DirAvg,status,SpdAvg,
2009-04-30, 00:00:04,VALID,1004.55,VALID,0,VALID,86.3132,VALID,0,VALID,26.5641,VALID,78,VALID,0.549609,
2009-04-30, 00:01:04,VALID,1004.5,VALID,0,VALID,86.2674,VALID,0,VALID,26.605,VALID,66,VALID,0.662891,
2009-04-30, 00:02:04,VALID,1004.5,VALID,0,VALID,86.3284,VALID,0,VALID,26.5641,VALID,62,VALID,0.483203,
2009-04-30, 00:03:04,VALID,1004.47,VALID,0,VALID,86.3055,VALID,0,VALID,26.5661,VALID,79,VALID,0.953516,
2009-04-30, 00:04:04,VALID,1004.46,VALID,0,VALID,86.3055,VALID,0,VALID,26.5446,VALID,60,VALID,0.571875,
2009-04-30, 00:05:04,VALID,1004.44,VALID,0,VALID,86.2979,VALID,0,VALID,26.5641,VALID,75,VALID,0.930859,
2009-04-30, 00:06:04,VALID,1004.39,VALID,0,VALID,86.2903,VALID,0,VALID,26.5641,VALID,90,VALID,1.03672,
2009-04-30, 00:07:04,VALID,1004.4,VALID,0,VALID,86.3132,VALID,0,VALID,26.5661,VALID,83,VALID,0.358984,
2009-04-30, 00:08:04,VALID,1004.41,VALID,0,VALID,86.4581,VALID,0,VALID,26.5466,VALID,84,VALID,1.08164,
2009-04-30, 00:09:04,VALID,1004.42,VALID,0,VALID,86.4962,VALID,0,VALID,26.5271,VALID,78,VALID,0.729688,
2009-04-30, 00:10:04,VALID,1004.41,VALID,0,VALID,86.5954,VALID,0,VALID,26.5271,VALID,10,VALID,0.651172,
2009-04-30, 00:11:04,VALID,1004.38,VALID,0,VALID,86.687,VALID,0,VALID,26.5076,VALID,48,VALID,0.711719,
2009-04-30, 00:12:04,VALID,1004.39,VALID,0,VALID,86.809,VALID,0,VALID,26.4687,VALID,28,VALID,0.614453,
2009-04-30, 00:13:04,VALID,1004.37,VALID,0,VALID,86.8853,VALID,0,VALID,26.4687,VALID,61,VALID,0.215234,
2009-04-30, 00:14:04,VALID,1004.38,VALID,0,VALID,86.9387,VALID,0,VALID,26.4082,VALID,60,VALID,0.146875,
2009-04-30, 00:15:04,VALID,1004.38,VALID,0,VALID,87.0913,VALID,0,VALID,26.4102,VALID,53,VALID,0.430078,
2009-04-30, 00:16:04,VALID,1004.37,VALID,0,VALID,87.16,VALID,0,VALID,26.4102,VALID,48,VALID,0.521094,
2009-04-30, 00:17:04,VALID,1004.38,VALID,0,VALID,87.3278,VALID,0,VALID,26.3498,VALID,39,VALID,0.830078,
2009-04-30, 00:18:04,VALID,1004.36,VALID,0,VALID,87.5109,VALID,0,VALID,26.4102,VALID,81,VALID,1.72773,
2009-04-30, 00:19:04,VALID,1004.33,VALID,0,VALID,87.1523,VALID,0,VALID,26.4881,VALID,48,VALID,0.419922,
2009-04-30, 00:20:04,VALID,1004.32,VALID,0,VALID,86.9692,VALID,0,VALID,26.4881,VALID,35,VALID,0.828125,
2009-04-30, 00:21:04,VALID,1004.35,VALID,0,VALID,86.9006,VALID,0,VALID,26.4472,VALID,46,VALID,0.244531,
2009-04-30, 00:22:04,VALID,1004.32,VALID,0,VALID,86.9235,VALID,0,VALID,26.4667,VALID,69,VALID,1.40586,
2009-04-30, 00:23:04,VALID,1004.35,VALID,0,VALID,86.7938,VALID,0,VALID,26.4667,VALID,34,VALID,0.806641,
2009-04-30, 00:24:04,VALID,1004.29,VALID,0,VALID,86.7404,VALID,0,VALID,26.4667,VALID,34,VALID,0.462891,
2009-04-30, 00:25:04,VALID,1004.34,VALID,0,VALID,86.7022,VALID,0,VALID,26.4492,VALID,47,VALID,0.433594,
2009-04-30, 00:26:04,VALID,1004.33,VALID,0,VALID,86.8319,VALID,0,VALID,26.4492,VALID,45,VALID,0.383203,
2009-04-30, 00:27:04,VALID,1004.33,VALID,0,VALID,86.8853,VALID,0,VALID,26.4297,VALID,16,VALID,0.741016,
2009-04-30, 00:28:04,VALID,1004.33,VALID,0,VALID,86.9311,VALID,0,VALID,26.3907,VALID,35,VALID,0.732422,
2009-04-30, 00:29:04,VALID,1004.3,VALID,0,VALID,86.9235,VALID,0,VALID,26.3907,VALID,26,VALID,0.801172,
2009-04-30, 00:30:04,VALID,1004.27,VALID,0,VALID,86.748,VALID,0,VALID,26.4277,VALID,24,VALID,0.664844,
2009-04-30, 00:31:04,VALID,1004.24,VALID,0,VALID,86.542,VALID,0,VALID,26.4881,VALID,34,VALID,0.944141,
2009-04-30, 00:32:04,VALID,1004.19,VALID,0,VALID,86.2521,VALID,0,VALID,26.5271,VALID,21,VALID,0.648828,
2009-04-30, 00:33:04,VALID,1004.19,VALID,0,VALID,86.1911,VALID,0,VALID,26.5056,VALID,21,VALID,0.279687,
2009-04-30, 00:34:04,VALID,1004.18,VALID,0,VALID,86.1987,VALID,0,VALID,26.4861,VALID,30,VALID,0.650391,
2009-04-30, 00:35:04,VALID,1004.17,VALID,0,VALID,86.1835,VALID,0,VALID,26.4667,VALID,1,VALID,0.972266,
2009-04-30, 00:36:04,VALID,1004.16,VALID,0,VALID,86.1987,VALID,0,VALID,26.5076,VALID,8,VALID,0.957812,
2009-04-30, 00:37:04,VALID,1004.16,VALID,0,VALID,86.0995,VALID,0,VALID,26.5056,VALID,28,VALID,1.10742,
2009-04-30, 00:38:04,VALID,1004.16,VALID,0,VALID,85.8554,VALID,0,VALID,26.605,VALID,43,VALID,0.746094,
2009-04-30, 00:39:04,VALID,1004.14,VALID,0,VALID,85.6342,VALID,0,VALID,26.6245,VALID,29,VALID,0.549219,
2009-04-30, 00:40:04,VALID,1004.14,VALID,0,VALID,85.5808,VALID,0,VALID,26.5835,VALID,14,VALID,0.514844,
2009-04-30, 00:41:04,VALID,1004.13,VALID,0,VALID,85.5503,VALID,0,VALID,26.6225,VALID,24,VALID,0.262891,
2009-04-30, 00:42:04,VALID,1004.11,VALID,0,VALID,85.4435,VALID,0,VALID,26.642,VALID,24,VALID,0.133984,
2009-04-30, 00:43:04,VALID,1004.08,VALID,0,VALID,85.4435,VALID,0,VALID,26.6614,VALID,18,VALID,1.29766,
2009-04-30, 00:44:04,VALID,1004.11,VALID,0,VALID,85.2527,VALID,0,VALID,26.6809,VALID,34,VALID,1.2543,
2009-04-30, 00:45:04,VALID,1004.11,VALID,0,VALID,85.2451,VALID,0,VALID,26.683,VALID,3,VALID,0.614062,
2009-04-30, 00:46:04,VALID,1004.1,VALID,0,VALID,85.2527,VALID,0,VALID,26.7024,VALID,25,VALID,0.296484,
2009-04-30, 00:47:04,VALID,1004.09,VALID,0,VALID,85.3672,VALID,0,VALID,26.6635,VALID,19,VALID,0.759766,
2009-04-30, 00:48:04,VALID,1004.12,VALID,0,VALID,85.535,VALID,0,VALID,26.642,VALID,10,VALID,0.619531,
2009-04-30, 00:49:04,VALID,1004.1,VALID,0,VALID,85.6571,VALID,0,VALID,26.6635,VALID,22,VALID,0.878516,
2009-04-30, 00:50:04,VALID,1004.1,VALID,0,VALID,85.6876,VALID,0,VALID,26.6635,VALID,20,VALID,1.00273,
2009-04-30, 00:51:04,VALID,1004.07,VALID,0,VALID,85.5732,VALID,0,VALID,26.7219,VALID,24,VALID,1.74375,
2009-04-30, 00:52:04,VALID,1004.07,VALID,0,VALID,85.1841,VALID,0,VALID,26.7978,VALID,24,VALID,1.05469,
2009-04-30, 00:53:04,VALID,1004.09,VALID,0,VALID,85.0315,VALID,0,VALID,26.8583,VALID,44,VALID,0.701172,
2009-04-30, 00:54:04,VALID,1004.07,VALID,0,VALID,85.0086,VALID,0,VALID,26.8173,VALID,30,VALID,0.750781,
2009-04-30, 00:55:04,VALID,1004.07,VALID,0,VALID,85.1536,VALID,0,VALID,26.7998,VALID,6,VALID,0.973828,
2009-04-30, 00:56:04,VALID,1004.06,VALID,0,VALID,85.2527,VALID,0,VALID,26.7783,VALID,27,VALID,0.292578,
2009-04-30, 00:57:04,VALID,1004.08,VALID,0,VALID,85.3748,VALID,0,VALID,26.7414,VALID,27,VALID,0.888672,
2009-04-30, 00:58:04,VALID,1004.06,VALID,0,VALID,85.5121,VALID,0,VALID,26.7414,VALID,60,VALID,0.295312,
2009-04-30, 00:59:04,VALID,1004.08,VALID,0,VALID,85.6113,VALID,0,VALID,26.7219,VALID,19,VALID,0.683594,
2009-04-30, 01:00:04,VALID,1004.04,VALID,0,VALID,85.5808,VALID,0,VALID,26.7219,VALID,44,VALID,0.428906,
2009-04-30, 01:01:04,VALID,1004.03,VALID,0,VALID,85.7181,VALID,0,VALID,26.6614,VALID,37,VALID,0.459375,
2009-04-30, 01:02:04,VALID,1004.06,VALID,0,VALID,85.8707,VALID,0,VALID,26.603,VALID,37,VALID,0.303125,
2009-04-30, 01:03:04,VALID,1004.04,VALID,0,VALID,86.214,VALID,0,VALID,26.5661,VALID,47,VALID,0.429297,
2009-04-30, 01:04:04,VALID,1004.02,VALID,0,VALID,86.4276,VALID,0,VALID,26.5251,VALID,52,VALID,0.179297,
2009-04-30, 01:05:04,VALID,1004.03,VALID,0,VALID,86.5039,VALID,0,VALID,26.5076,VALID,52,VALID,0.208984,
2009-04-30, 01:06:04,VALID,1004.02,VALID,0,VALID,86.5268,VALID,0,VALID,26.4102,VALID,67,VALID,0.585547,
2009-04-30, 01:07:04,VALID,1004.02,VALID,0,VALID,87.221,VALID,0,VALID,26.3518,VALID,40,VALID,0.565234,
2009-04-30, 01:08:04,VALID,1004.02,VALID,0,VALID,86.9387,VALID,0,VALID,26.3128,VALID,60,VALID,0.407031,
2009-04-30, 01:09:04,VALID,1004.02,VALID,0,VALID,86.9769,VALID,0,VALID,26.1959,VALID,60,VALID,0.409375,
2009-04-30, 01:10:04,VALID,1003.94,VALID,0,VALID,87.3507,VALID,0,VALID,26.0771,VALID,60,VALID,0.227344,
2009-04-30, 01:11:04,VALID,1003.99,VALID,0,VALID,87.6558,VALID,0,VALID,26.0012,VALID,60,VALID,0.0414063,
2009-04-30, 01:12:04,VALID,1003.96,VALID,0,VALID,88.0754,VALID,0,VALID,25.9232,VALID,60,VALID,0.0628906,
2009-04-30, 01:13:04,VALID,1003.94,VALID,0,VALID,88.4187,VALID,0,VALID,25.8239,VALID,60,VALID,0.205078,
2009-04-30, 01:14:04,VALID,1003.93,VALID,0,VALID,88.6552,VALID,0,VALID,25.746,VALID,60,VALID,0.13125,
2009-04-30, 01:15:04,VALID,1003.92,VALID,0,VALID,89.029,VALID,0,VALID,25.6876,VALID,60,VALID,0.121484,
2009-04-30, 01:16:04,VALID,1003.94,VALID,0,VALID,89.2121,VALID,0,VALID,25.6311,VALID,60,VALID,0.588281,
2009-04-30, 01:17:04,VALID,1003.9,VALID,0,VALID,89.4105,VALID,0,VALID,25.5532,VALID,60,VALID,0.359766,
2009-04-30, 01:18:04,VALID,1003.91,VALID,0,VALID,89.6851,VALID,0,VALID,25.5162,VALID,60,VALID,0.0707031,
2009-04-30, 01:19:04,VALID,1003.89,VALID,0,VALID,89.9598,VALID,0,VALID,25.4149,VALID,60,VALID,0.107422,
2009-04-30, 01:20:04,VALID,1003.88,VALID,0,VALID,90.2268,VALID,0,VALID,25.376,VALID,60,VALID,0,
2009-04-30, 01:21:04,VALID,1003.88,VALID,0,VALID,90.4327,VALID,0,VALID,25.3176,VALID,60,VALID,0,
2009-04-30, 01:22:04,VALID,1003.85,VALID,0,VALID,90.6692,VALID,0,VALID,25.3195,VALID,60,VALID,0,
2009-04-30, 01:23:04,VALID,1003.84,VALID,0,VALID,90.8523,VALID,0,VALID,25.2806,VALID,60,VALID,0,
2009-04-30, 01:24:04,VALID,1003.8,VALID,0,VALID,91.0125,VALID,0,VALID,25.2397,VALID,60,VALID,0.0148437,
2009-04-30, 01:25:04,VALID,1003.77,VALID,0,VALID,91.2185,VALID,0.100563,VALID,25.2202,VALID,60,VALID,0.177734,
2009-04-30, 01:26:04,VALID,1003.77,VALID,0,VALID,91.2185,VALID,0,VALID,25.1813,VALID,60,VALID,0,
2009-04-30, 01:27:04,VALID,1003.73,VALID,0,VALID,91.2567,VALID,0,VALID,25.1423,VALID,60,VALID,0.0484375,
2009-04-30, 01:28:04,VALID,1003.75,VALID,0,VALID,91.3024,VALID,0,VALID,25.1442,VALID,60,VALID,0.100781,
2009-04-30, 01:29:04,VALID,1003.69,VALID,0,VALID,91.4321,VALID,0,VALID,25.0644,VALID,33,VALID,0.364844,
2009-04-30, 01:30:04,VALID,1003.69,VALID,0,VALID,91.9509,VALID,0,VALID,25.1442,VALID,77,VALID,0.510938,
2009-04-30, 01:31:04,VALID,1003.68,VALID,0,VALID,92.3171,VALID,0,VALID,25.2221,VALID,16,VALID,0.475781,
2009-04-30, 01:32:04,VALID,1003.7,VALID,0,VALID,92.134,VALID,0,VALID,25.2202,VALID,28,VALID,0.228516,
2009-04-30, 01:33:04,VALID,1003.69,VALID,0,VALID,92.1492,VALID,0,VALID,25.2416,VALID,28,VALID,0.0265625,
2009-04-30, 01:34:04,VALID,1003.7,VALID,0,VALID,92.2408,VALID,0,VALID,25.2806,VALID,33,VALID,0.325,
2009-04-30, 01:35:04,VALID,1003.67,VALID,0,VALID,92.2561,VALID,0,VALID,25.3,VALID,75,VALID,0.287109,
2009-04-30, 01:36:04,VALID,1003.71,VALID,0,VALID,92.2408,VALID,0,VALID,25.3176,VALID,75,VALID,0.248828,
2009-04-30, 01:37:04,VALID,1003.67,VALID,0,VALID,92.1187,VALID,0,VALID,25.3779,VALID,75,VALID,0.00351562,
2009-04-30, 01:38:04,VALID,1003.64,VALID,0,VALID,92.0653,VALID,0,VALID,25.376,VALID,75,VALID,0.0847656,
2009-04-30, 01:39:04,VALID,1003.64,VALID,0,VALID,91.8365,VALID,0,VALID,25.3779,VALID,75,VALID,0.301172,
2009-04-30, 01:40:04,VALID,1003.63,VALID,0,VALID,91.7525,VALID,0,VALID,25.339,VALID,75,VALID,0.00585938,
2009-04-30, 01:41:04,VALID,1003.58,VALID,0,VALID,91.6991,VALID,0,VALID,25.2981,VALID,75,VALID,0.142969,
2009-04-30, 01:42:04,VALID,1003.56,VALID,0,VALID,91.6991,VALID,0,VALID,25.2592,VALID,75,VALID,0,
2009-04-30, 01:43:04,VALID,1003.56,VALID,0,VALID,91.7831,VALID,0,VALID,25.2592,VALID,75,VALID,0.283203,
2009-04-30, 01:44:04,VALID,1003.52,VALID,0,VALID,91.7602,VALID,0,VALID,25.2007,VALID,75,VALID,0.203516,
2009-04-30, 01:45:04,VALID,1003.55,VALID,0,VALID,91.8059,VALID,0,VALID,25.2027,VALID,75,VALID,0.0980469,
2009-04-30, 01:46:04,VALID,1003.52,VALID,0,VALID,91.8517,VALID,0,VALID,25.1618,VALID,119,VALID,0.0726563,
2009-04-30, 01:47:04,VALID,1003.5,VALID,0,VALID,91.928,VALID,0,VALID,25.1442,VALID,119,VALID,0.00234375,
2009-04-30, 01:48:04,VALID,1003.52,VALID,0,VALID,91.9967,VALID,0.100563,VALID,25.1034,VALID,119,VALID,0,
2009-04-30, 01:49:04,VALID,1003.5,VALID,0,VALID,92.1035,VALID,0,VALID,25.1034,VALID,119,VALID,0.110156,
2009-04-30, 01:50:04,VALID,1003.49,VALID,0,VALID,91.9585,VALID,0,VALID,25.0858,VALID,119,VALID,0,
2009-04-30, 01:51:04,VALID,1003.45,VALID,0,VALID,92.1492,VALID,0,VALID,25.0663,VALID,119,VALID,0,
2009-04-30, 01:52:04,VALID,1003.45,VALID,0,VALID,92.401,VALID,0,VALID,25.1053,VALID,119,VALID,0.298047,
2009-04-30, 01:53:04,VALID,1003.42,VALID,0,VALID,92.4544,VALID,0,VALID,25.1053,VALID,119,VALID,0,
2009-04-30, 01:54:04,VALID,1003.41,VALID,0,VALID,92.4239,VALID,0,VALID,25.0839,VALID,119,VALID,0,
2009-04-30, 01:55:04,VALID,1003.4,VALID,0,VALID,92.4086,VALID,0,VALID,25.0644,VALID,119,VALID,0,
2009-04-30, 01:56:04,VALID,1003.41,VALID,0,VALID,92.4468,VALID,0,VALID,25.0644,VALID,119,VALID,0,
2009-04-30, 01:57:04,VALID,1003.38,VALID,0,VALID,92.5078,VALID,0,VALID,25.0858,VALID,119,VALID,0,
2009-04-30, 01:58:04,VALID,1003.38,VALID,0,VALID,92.5154,VALID,0,VALID,25.0469,VALID,119,VALID,0,
2009-04-30, 01:59:04,VALID,1003.4,VALID,0,VALID,92.5154,VALID,0,VALID,25.0255,VALID,119,VALID,0.096875,
2009-04-30, 02:00:04,VALID,1003.37,VALID,0,VALID,92.6146,VALID,0,VALID,25.045,VALID,119,VALID,0.133984,
2009-04-30, 02:01:04,VALID,1003.38,VALID,0,VALID,92.5612,VALID,0,VALID,25.0255,VALID,119,VALID,0.0953125,
2009-04-30, 02:02:04,VALID,1003.35,VALID,0,VALID,92.6756,VALID,0,VALID,25.0255,VALID,118,VALID,0.473828,
2009-04-30, 02:03:04,VALID,1003.33,VALID,0,VALID,93.0342,VALID,0,VALID,25.1229,VALID,41,VALID,0.327734,
2009-04-30, 02:04:04,VALID,1003.35,VALID,0,VALID,92.729,VALID,0,VALID,25.1248,VALID,41,VALID,0.279687,
2009-04-30, 02:05:04,VALID,1003.32,VALID,0,VALID,92.6985,VALID,0,VALID,25.1034,VALID,41,VALID,0.122656,
2009-04-30, 02:06:04,VALID,1003.33,VALID,0,VALID,92.6528,VALID,0,VALID,25.1248,VALID,41,VALID,0.350391,
2009-04-30, 02:07:04,VALID,1003.36,VALID,0,VALID,92.6451,VALID,0,VALID,25.1053,VALID,41,VALID,0.167187,
2009-04-30, 02:08:04,VALID,1003.35,VALID,0,VALID,93.1563,VALID,0,VALID,25.1618,VALID,16,VALID,0.975,
2009-04-30, 02:09:04,VALID,1003.35,VALID,0,VALID,92.7748,VALID,0,VALID,25.1813,VALID,30,VALID,0.225781,
2009-04-30, 02:10:04,VALID,1003.35,VALID,0,VALID,92.7367,VALID,0,VALID,25.2027,VALID,31,VALID,0.461328,
2009-04-30, 02:11:04,VALID,1003.35,VALID,0,VALID,92.6146,VALID,0,VALID,25.2416,VALID,32,VALID,0.129688,
2009-04-30, 02:12:04,VALID,1003.32,VALID,0,VALID,92.4925,VALID,0,VALID,25.2007,VALID,32,VALID,0.146875,
2009-04-30, 02:13:04,VALID,1003.34,VALID,0,VALID,92.4239,VALID,0,VALID,25.2027,VALID,32,VALID,0.312891,
2009-04-30, 02:14:04,VALID,1003.3,VALID,0,VALID,92.401,VALID,0,VALID,25.1813,VALID,32,VALID,0.0574219,
2009-04-30, 02:15:04,VALID,1003.35,VALID,0,VALID,92.4544,VALID,0.100563,VALID,25.1618,VALID,35,VALID,0.136328,
2009-04-30, 02:16:04,VALID,1003.34,VALID,0,VALID,92.7977,VALID,0,VALID,25.2611,VALID,61,VALID,0.739844,
2009-04-30, 02:17:04,VALID,1003.33,VALID,0,VALID,92.7367,VALID,0,VALID,25.3195,VALID,55,VALID,0.0847656,
2009-04-30, 02:18:04,VALID,1003.32,VALID,0,VALID,92.5917,VALID,0,VALID,25.2981,VALID,56,VALID,0,
2009-04-30, 02:19:04,VALID,1003.29,VALID,0,VALID,92.462,VALID,0,VALID,25.2981,VALID,55,VALID,0,
2009-04-30, 02:20:04,VALID,1003.29,VALID,0,VALID,92.4086,VALID,0,VALID,25.2786,VALID,55,VALID,0,
2009-04-30, 02:21:04,VALID,1003.3,VALID,0,VALID,92.1874,VALID,0,VALID,25.2786,VALID,55,VALID,0.115625,
2009-04-30, 02:22:04,VALID,1003.3,VALID,0,VALID,92.1569,VALID,0.100563,VALID,25.2397,VALID,55,VALID,0.0808594,
2009-04-30, 02:23:04,VALID,1003.29,VALID,0,VALID,92.0424,VALID,0,VALID,25.2202,VALID,56,VALID,0.0375,
2009-04-30, 02:24:04,VALID,1003.3,VALID,0,VALID,91.9814,VALID,0.100563,VALID,25.1813,VALID,55,VALID,0,
2009-04-30, 02:25:04,VALID,1003.3,VALID,0,VALID,92.0348,VALID,0,VALID,25.2027,VALID,55,VALID,0,
2009-04-30, 02:26:04,VALID,1003.26,VALID,0,VALID,92.0272,VALID,0,VALID,25.121,VALID,55,VALID,0,
2009-04-30, 02:27:04,VALID,1003.25,VALID,0,VALID,92.1111,VALID,0,VALID,25.1229,VALID,56,VALID,0.0757812,
2009-04-30, 02:28:04,VALID,1003.26,VALID,0,VALID,92.1111,VALID,0,VALID,25.0839,VALID,55,VALID,0.0308594,
2009-04-30, 02:29:04,VALID,1003.26,VALID,0,VALID,92.1645,VALID,0,VALID,25.1053,VALID,55,VALID,0.0546875,
2009-04-30, 02:30:04,VALID,1003.25,VALID,0,VALID,92.2713,VALID,0,VALID,25.045,VALID,56,VALID,0,
2009-04-30, 02:31:04,VALID,1003.2,VALID,0,VALID,92.4849,VALID,0,VALID,25.1053,VALID,55,VALID,0.120703,
2009-04-30, 02:32:04,VALID,1003.2,VALID,0,VALID,92.729,VALID,0,VALID,25.1034,VALID,56,VALID,0.249609,
2009-04-30, 02:33:04,VALID,1003.18,VALID,0,VALID,92.4773,VALID,0,VALID,25.0839,VALID,56,VALID,0,
2009-04-30, 02:34:04,VALID,1003.18,VALID,0,VALID,92.4239,VALID,0,VALID,25.0255,VALID,56,VALID,0.0871094,
2009-04-30, 02:35:04,VALID,1003.17,VALID,0,VALID,92.3247,VALID,0.100563,VALID,24.9866,VALID,55,VALID,0.3,
2009-04-30, 02:36:04,VALID,1003.17,VALID,0,VALID,92.2561,VALID,0,VALID,24.9282,VALID,55,VALID,0.285156,
2009-04-30, 02:37:04,VALID,1003.18,VALID,0,VALID,92.4697,VALID,0,VALID,24.9106,VALID,55,VALID,0,
2009-04-30, 02:38:04,VALID,1003.19,VALID,0,VALID,92.6604,VALID,0,VALID,24.9087,VALID,55,VALID,0.046875,
2009-04-30, 02:39:04,VALID,1003.19,VALID,0,VALID,92.8358,VALID,0,VALID,24.93,VALID,55,VALID,0,
2009-04-30, 02:40:04,VALID,1003.18,VALID,0,VALID,92.9503,VALID,0,VALID,24.9087,VALID,55,VALID,0,
2009-04-30, 02:41:04,VALID,1003.14,VALID,0,VALID,93.0495,VALID,0.100563,VALID,24.9282,VALID,55,VALID,0,
2009-04-30, 02:42:04,VALID,1003.13,VALID,0,VALID,93.0266,VALID,0,VALID,24.9495,VALID,55,VALID,0.193359,
2009-04-30, 02:43:04,VALID,1003.13,VALID,0,VALID,92.9808,VALID,0,VALID,24.9282,VALID,55,VALID,0.370313,
2009-04-30, 02:44:04,VALID,1003.16,VALID,0,VALID,93.1486,VALID,0,VALID,24.9671,VALID,56,VALID,0.423438,
2009-04-30, 02:45:04,VALID,1003.11,VALID,0,VALID,93.0571,VALID,0,VALID,24.9885,VALID,56,VALID,0.309766,
2009-04-30, 02:46:04,VALID,1003.1,VALID,0,VALID,93.08,VALID,0,VALID,24.9476,VALID,71,VALID,0.528125,
2009-04-30, 02:47:04,VALID,1003.1,VALID,0,VALID,93.08,VALID,0,VALID,24.9866,VALID,71,VALID,0.144141,
2009-04-30, 02:48:04,VALID,1003.06,VALID,0,VALID,93.1486,VALID,0,VALID,25.006,VALID,74,VALID,0.591797,
2009-04-30, 02:49:04,VALID,1003.07,VALID,0,VALID,93.1715,VALID,0,VALID,25.0663,VALID,80,VALID,0.325781,
2009-04-30, 02:50:04,VALID,1003.03,VALID,0,VALID,93.0647,VALID,0,VALID,25.0644,VALID,80,VALID,0.302734,
2009-04-30, 02:51:04,VALID,1003.05,VALID,0,VALID,93.0495,VALID,0,VALID,25.1053,VALID,83,VALID,0.0410156,
2009-04-30, 02:52:04,VALID,1003.05,VALID,0,VALID,92.9808,VALID,0,VALID,25.0839,VALID,83,VALID,0.200391,
2009-04-30, 02:53:04,VALID,1003.04,VALID,0,VALID,93.1257,VALID,0,VALID,25.1637,VALID,30,VALID,0.249609,
2009-04-30, 02:54:04,VALID,1003.03,VALID,0,VALID,93.08,VALID,0,VALID,25.1832,VALID,31,VALID,0.355469,
2009-04-30, 02:55:04,VALID,1003.05,VALID,0,VALID,93.0266,VALID,0,VALID,25.2416,VALID,56,VALID,0.564453,
2009-04-30, 02:56:04,VALID,1003.03,VALID,0,VALID,92.9655,VALID,0,VALID,25.2592,VALID,56,VALID,0.313672,
2009-04-30, 02:57:04,VALID,1003.04,VALID,0,VALID,92.9655,VALID,0,VALID,25.339,VALID,92,VALID,0.311719,
2009-04-30, 02:58:04,VALID,1003.05,VALID,0,VALID,92.7519,VALID,0,VALID,25.3779,VALID,92,VALID,0.0921875,
2009-04-30, 02:59:04,VALID,1003.05,VALID,0,VALID,92.6146,VALID,0,VALID,25.3779,VALID,92,VALID,0.232812,
2009-04-30, 03:00:04,VALID,1003.11,VALID,0,VALID,92.4773,VALID,0,VALID,25.376,VALID,92,VALID,0.126953,
2009-04-30, 03:01:04,VALID,1003.13,VALID,0,VALID,92.4773,VALID,0,VALID,25.4169,VALID,92,VALID,0.115234,
2009-04-30, 03:02:04,VALID,1003.15,VALID,0,VALID,92.3857,VALID,0,VALID,25.4149,VALID,92,VALID,0.0847656,
2009-04-30, 03:03:04,VALID,1003.15,VALID,0,VALID,92.2866,VALID,0,VALID,25.3955,VALID,92,VALID,0.112891,
2009-04-30, 03:04:04,VALID,1003.16,VALID,0,VALID,92.0272,VALID,0,VALID,25.3955,VALID,92,VALID,0.331641,
2009-04-30, 03:05:04,VALID,1003.19,VALID,0,VALID,91.9967,VALID,0,VALID,25.4558,VALID,85,VALID,0.400391,
2009-04-30, 03:06:04,VALID,1003.22,VALID,0,VALID,91.7678,VALID,0,VALID,25.4539,VALID,83,VALID,0.105078,
2009-04-30, 03:07:04,VALID,1003.24,VALID,0,VALID,91.6915,VALID,0,VALID,25.4539,VALID,35,VALID,0.227734,
2009-04-30, 03:08:04,VALID,1003.22,VALID,0,VALID,91.5695,VALID,0,VALID,25.4948,VALID,38,VALID,0.61875,
2009-04-30, 03:09:04,VALID,1003.2,VALID,0,VALID,91.4932,VALID,0,VALID,25.5318,VALID,22,VALID,0.421484,
2009-04-30, 03:10:04,VALID,1003.18,VALID,0,VALID,91.2567,VALID,0,VALID,25.5902,VALID,22,VALID,0.340625,
2009-04-30, 03:11:04,VALID,1003.15,VALID,0,VALID,91.1193,VALID,0,VALID,25.6486,VALID,32,VALID,0.454688,
2009-04-30, 03:12:04,VALID,1003.11,VALID,0,VALID,90.8371,VALID,0,VALID,25.709,VALID,34,VALID,0.153906,
2009-04-30, 03:13:04,VALID,1003.11,VALID,0,VALID,90.4709,VALID,0,VALID,25.6681,VALID,34,VALID,0.307031,
2009-04-30, 03:14:04,VALID,1003.07,VALID,0,VALID,90.4175,VALID,0,VALID,25.6486,VALID,22,VALID,0.734375,
2009-04-30, 03:15:04,VALID,1003.09,VALID,0,VALID,90.3259,VALID,0,VALID,25.6876,VALID,26,VALID,0.457812,
2009-04-30, 03:16:04,VALID,1003.1,VALID,0,VALID,90.1429,VALID,0,VALID,25.6876,VALID,26,VALID,0.510547,
2009-04-30, 03:17:04,VALID,1003.1,VALID,0,VALID,90.2268,VALID,0,VALID,25.785,VALID,45,VALID,0.842578,
2009-04-30, 03:18:04,VALID,1003.09,VALID,0,VALID,89.8148,VALID,0,VALID,25.8434,VALID,50,VALID,1.18164,
2009-04-30, 03:19:04,VALID,1003.09,VALID,0,VALID,89.3876,VALID,0,VALID,25.9408,VALID,14,VALID,0.779297,
2009-04-30, 03:20:04,VALID,1003.1,VALID,0,VALID,89.0672,VALID,0.100563,VALID,26.0381,VALID,21,VALID,0.8875,
2009-04-30, 03:21:04,VALID,1003.1,VALID,0,VALID,88.5942,VALID,0,VALID,26.0381,VALID,28,VALID,0.525,
2009-04-30, 03:22:04,VALID,1003.11,VALID,0,VALID,88.3806,VALID,0,VALID,25.9602,VALID,29,VALID,0.444531,
2009-04-30, 03:23:04,VALID,1003.1,VALID,0,VALID,88.5026,VALID,0,VALID,25.9817,VALID,36,VALID,0.624219,
2009-04-30, 03:24:04,VALID,1003.09,VALID,0,VALID,88.7773,VALID,0,VALID,25.9602,VALID,13,VALID,0.939062,
2009-04-30, 03:25:04,VALID,1003.1,VALID,0,VALID,88.6705,VALID,0,VALID,25.9992,VALID,36,VALID,0.344922,
2009-04-30, 03:26:04,VALID,1003.12,VALID,0,VALID,88.4492,VALID,0,VALID,25.9797,VALID,15,VALID,0.437891,
2009-04-30, 03:27:04,VALID,1003.12,VALID,0,VALID,88.6705,VALID,0,VALID,25.9602,VALID,36,VALID,0.607422,
2009-04-30, 03:28:04,VALID,1003.1,VALID,0,VALID,88.6781,VALID,0.100563,VALID,25.9817,VALID,21,VALID,0.874219,
2009-04-30, 03:29:04,VALID,1003.14,VALID,0,VALID,88.5484,VALID,0,VALID,25.9797,VALID,17,VALID,0.342187,
2009-04-30, 03:30:04,VALID,1003.13,VALID,0,VALID,88.7086,VALID,0,VALID,26.0206,VALID,37,VALID,0.635547,
2009-04-30, 03:31:04,VALID,1003.16,VALID,0,VALID,88.5789,VALID,0,VALID,26.0596,VALID,14,VALID,0.141016,
2009-04-30, 03:32:04,VALID,1003.17,VALID,0,VALID,88.5026,VALID,0,VALID,26.0381,VALID,16,VALID,0.572656,
2009-04-30, 03:33:04,VALID,1003.19,VALID,0,VALID,88.5713,VALID,0,VALID,26.0791,VALID,17,VALID,0.526953,
2009-04-30, 03:34:04,VALID,1003.22,VALID,0,VALID,88.5103,VALID,0,VALID,26.118,VALID,39,VALID,0.507422,
2009-04-30, 03:35:04,VALID,1003.24,VALID,0,VALID,88.3348,VALID,0,VALID,26.116,VALID,33,VALID,0.335938,
2009-04-30, 03:36:04,VALID,1003.24,VALID,0,VALID,88.3348,VALID,0,VALID,26.116,VALID,47,VALID,0.286328,
2009-04-30, 03:37:04,VALID,1003.25,VALID,0,VALID,88.2509,VALID,0,VALID,26.116,VALID,51,VALID,0.390234,
2009-04-30, 03:38:04,VALID,1003.26,VALID,0,VALID,88.3653,VALID,0,VALID,26.0985,VALID,81,VALID,0.130859,
2009-04-30, 03:39:04,VALID,1003.29,VALID,0,VALID,88.4798,VALID,0,VALID,26.0771,VALID,70,VALID,0.421875,
2009-04-30, 03:40:04,VALID,1003.31,VALID,0,VALID,88.5713,VALID,0,VALID,26.0596,VALID,20,VALID,0.670703,
2009-04-30, 03:41:04,VALID,1003.34,VALID,0,VALID,88.6705,VALID,0,VALID,26.0576,VALID,39,VALID,0.261719,
2009-04-30, 03:42:04,VALID,1003.35,VALID,0,VALID,88.6857,VALID,0,VALID,26.0596,VALID,56,VALID,0.324219,
2009-04-30, 03:43:04,VALID,1003.35,VALID,0,VALID,88.7162,VALID,0,VALID,26.0381,VALID,55,VALID,0.362109,
2009-04-30, 03:44:04,VALID,1003.34,VALID,0,VALID,88.7315,VALID,0,VALID,26.0596,VALID,73,VALID,0.682031,
2009-04-30, 03:45:04,VALID,1003.31,VALID,0,VALID,88.7239,VALID,0,VALID,26.0576,VALID,90,VALID,0.832812,
2009-04-30, 03:46:04,VALID,1003.31,VALID,0,VALID,88.6476,VALID,0,VALID,26.0985,VALID,94,VALID,0.666406,
2009-04-30, 03:47:04,VALID,1003.32,VALID,0,VALID,88.6094,VALID,0,VALID,26.0791,VALID,93,VALID,0.471875,